TIANWANG 1B (TW-1B)
1 40927U 15051C   19067.42722804  .00009485  00000-0  15880-3 0  9997
2 40927  97.1534 113.3706 0010425  52.6192  61.7815 15.52019277194147
TIANWANG 1A (TW-1A)
1 40928U 15051D   19067.44676322  .00003025  00000-0  77368-4 0  9997
2 40928  97.1579 100.9900 0013496  86.9585  20.8250 15.40112914193431
LAPAN A2
1 40931U 15052B   19065.33220913  .00000667  00000-0  39171-5 0  9999
2 40931   5.9999  80.6813 0012908 119.7905 240.3507 14.76598923185816
LQSAT
1 40958U 15057A   19067.47058401 -.00000006  00000-0  66892-5 0  9999
2 40958  97.9099 139.3757 0017428 204.9242 155.1132 14.73068507183754
CHUBUSAT 2
1 41338U 16012B   19067.02221550  .00000314  00000-0  17693-4 0  9997
2 41338  31.0034  77.2233 0013835 166.3806 193.7205 15.00103038167480
CHUBUSAT 3
1 41339U 16012C   19067.40300526  .00000357  00000-0  21016-4 0  9992
2 41339  31.0102  73.0338 0013367 177.7095 182.3610 15.00282182167531
OUFTI-1
1 41458U 16025C   19067.44207662  .00000846  00000-0  47663-4 0  9998
2 41458  98.1061 149.1042 0167067 341.2424  18.2706 15.05460536157199
E-STAR-2
1 41459U 16025D   19067.43513117  .00001388  00000-0  75583-4 0  9997
2 41459  98.1061 148.8165 0168181 342.3026  17.2400 15.05133676157169
AAUSAT 4
1 41460U 16025E   19067.46713688  .00001429  00000-0  76428-4 0  9992
2 41460  98.1002 149.8517 0158462 335.9803  23.4063 15.06877288157271
NUSAT 1
1 41557U 16033B   19067.49454617  .00001284  00000-0  51279-4 0  9991
2 41557  97.4206 155.6055 0012498 302.5025  57.5006 15.26926180154496
BEESAT 4
1 41619U 16040W   19067.41250313  .00001354  00000-0  60783-4 0  9995
2 41619  97.3804 131.4924 0012118  31.0914 329.1037 15.22827290138295
PRATHAM
1 41783U 16059A   19066.93972731  .00000042  00000-0  17463-4 0  9998
2 41783  98.0813 128.7213 0033197 349.4151  10.6348 14.62976116130524
ALSAT 1N
1 41789U 16059G   19067.42584407  .00000074  00000-0  23080-4 0  9995
2 41789  98.0840 130.9732 0027358 339.0887  20.9200 14.64220552130680
NAYIF 1
1 42017U 17008BX  19066.70523457  .00001423  00000-0  59560-4 0  9994
2 42017  97.4148 134.8207 0006850 158.8335 201.3188 15.25199829114220
LILACSAT-1
1 42725U 98067ME  19067.52425986  .00270817  42673-4  46838-3 0  9997
2 42725  51.6295  69.4091 0005046  93.3441 358.0387 16.01789543102302
MAX VALIER SAT
1 42778U 17036P   19067.35453787  .00000878  00000-0  41671-4 0  9996
2 42778  97.3681 127.2141 0011495 217.1992 142.8449 15.21802341 94678
